(201912) = 2004 BB116 = 2007 TN181

Discovered at Anderson Mesa on 2004-01-26 by LONEOS.

Orbit

Orbit type: Main Belt

Note: WebGL enabled browser required.

epoch2024-03-31.0
epoch JD2460400.5
perihelion date2022-08-14.41334
perihelion JD2459805.91334
argument of perihelion (°)248.23455
ascending node (°)86.04084
inclination (°)11.51994
eccentricity0.0162845
perihelion distance (AU)2.9459598
Tisserand w.r.t. Jupiter3.2
ΔV w.r.t. Earth (km/sec)11.2
semimajor axis (AU)2.9947274
mean anomaly (°)113.07929
mean daily motion (°/day)0.19018130
aphelion distance (AU)3.043
period (years)5.18
P-vector [x]0.88222670
P-vector [y]-0.32326792
P-vector [z]-0.34230673
Q-vector [x]0.42659406
Q-vector [y]0.85648109
Q-vector [z]0.29061598
absolute magnitude15.31
phase slope0.15
uncertainty0
referenceMPEC 2024-E23
observations used490
oppositions19
arc length (days)9540
first opposition used1998
last opposition used2024
residual rms (arc-secs)0.79
perturbers coarse indicatorM-v
perturbers precise indicator003Ek
first observation date used1998-01-18.0
last observation date used2024-03-02.0
computer nameMPCLINUX
JD of orbit computation2456670.804886
perihelion JD uncertainty (days)3.3338E-03
argument of perihelion uncertainty (°)6.3119E-04
ascending node uncertainty (°)5.3239E-05
inclination uncertainty (°)1.2631E-05
eccentricity uncertainty 1.2829E-07
perihelion distance uncertainty (AU)3.7406E-07
Minimum Orbit Intersection Distances (in AU)
for orbit epoch: 2460400.5, reference: E2024-FB1
Mercury2.50685
Venus2.22501
Earth1.94766
Mars1.41115
Jupiter2.04893
Saturn6.02892
Uranus15.4568
Neptune26.8697

Observations

511 total observations over interval: 1998 01 18.14346 – 2024 03 02.293741
These data are available for download (format description).

Date (UT) J2000 RA J2000 Dec Magn Location Ref
1998 01 18.14346 03 24 06.42 +14 20 53.0 20.3 V 691 – Steward Observatory, Kitt Peak-Spacewatch MPS 228990
1998 01 18.16605 03 24 06.56 +14 20 59.5 20.4 V 691 – Steward Observatory, Kitt Peak-Spacewatch MPS 228990
1998 01 18.18852 03 24 06.70 +14 21 05.3 20.3 V 691 – Steward Observatory, Kitt Peak-Spacewatch MPS 228990
2000 04 28.30962 15 18 27.98 -06 26 53.0 19.7 R 699 – Lowell Observatory-LONEOS MPS 228990
2000 04 28.32847 15 18 27.11 -06 26 51.4   699 – Lowell Observatory-LONEOS MPS 228990
2000 04 28.34738 15 18 26.17 -06 26 49.3   699 – Lowell Observatory-LONEOS MPS 228990
2000 04 28.36628 15 18 25.33 -06 26 47.9   699 – Lowell Observatory-LONEOS MPS 228990
2001 08 10.38919 21 19 35.10 -29 20 19.6 20.1   644 – Palomar Mountain/NEAT MPS 228990
2001 08 10.39944 21 19 34.55 -29 20 22.8 20.0   644 – Palomar Mountain/NEAT MPS 228990
2001 08 10.40978 21 19 33.97 -29 20 26.2 19.8   644 – Palomar Mountain/NEAT MPS 228990
2002 10 16.38914 03 13 37.71 +05 09 54.5 19.5 R 699 – Lowell Observatory-LONEOS MPS 228990
2002 10 16.39968 03 13 37.31 +05 09 52.2   699 – Lowell Observatory-LONEOS MPS 228990
2002 10 16.41018 03 13 36.87 +05 09 49.9   699 – Lowell Observatory-LONEOS MPS 228990
2002 10 16.42072 03 13 36.48 +05 09 49.5   699 – Lowell Observatory-LONEOS MPS 228990
2004 01 26.26322 08 46 01.79 +29 16 10.3 19.2 R 699 – Lowell Observatory-LONEOS MPS 98911
2004 01 26.28334 08 46 00.69 +29 16 16.3   699 – Lowell Observatory-LONEOS MPS 98911
2004 01 26.29424 08 46 00.03 +29 16 21.7   699 – Lowell Observatory-LONEOS MPS 98911
2004 01 26.31420 08 45 58.89 +29 16 28.6   699 – Lowell Observatory-LONEOS MPS 98911
2004 01 31.29537 08 41 27.78 +29 44 50.9 19.8   704 – Lincoln Laboratory ETS, New Mexico MPS 98911
2004 01 31.30778 08 41 27.15 +29 44 54.4 19.7   704 – Lincoln Laboratory ETS, New Mexico MPS 98911
2004 01 31.32246 08 41 26.16 +29 44 58.9 19.8   704 – Lincoln Laboratory ETS, New Mexico MPS 98911
2005 05 04.29020 14 06 46.76 +01 38 33.0 20.0 V 703 – Catalina Sky Survey MPS 228990
2005 05 04.29854 14 06 46.36 +01 38 33.6 19.3 V 703 – Catalina Sky Survey MPS 228990
2005 05 04.30687 14 06 46.00 +01 38 34.2 19.4 V 703 – Catalina Sky Survey MPS 228990
2005 05 04.31522 14 06 45.54 +01 38 34.1 19.6 V 703 – Catalina Sky Survey MPS 228990
2006 06 23.33351 20 27 02.16 -26 45 47.9 19.8 R 644 – Palomar Mountain/NEAT MPS 228990
2006 06 23.35466 20 27 01.50 -26 45 55.8 19.7 R 644 – Palomar Mountain/NEAT MPS 228990
2006 06 23.37603 20 27 00.84 -26 46 03.7 19.4 R 644 – Palomar Mountain/NEAT MPS 228990
2007 10 08.32411 02 11 30.75 -02 46 00.8 19.5 r 699 – Lowell Observatory-LONEOS MPS 222625
2007 10 08.34604 02 11 29.76 -02 46 06.9   699 – Lowell Observatory-LONEOS MPS 222625
2007 10 08.36799 02 11 28.78 -02 46 12.4   699 – Lowell Observatory-LONEOS MPS 222625
2007 10 08.38994 02 11 27.76 -02 46 16.0   699 – Lowell Observatory-LONEOS MPS 222625
2007 10 10.28159 02 10 03.93 -02 53 28.7 19.9 V 703 – Catalina Sky Survey MPS 222625
2007 10 10.28752 02 10 03.68 -02 53 29.3 19.6 V 703 – Catalina Sky Survey MPS 222625
2007 10 10.29347 02 10 03.43 -02 53 30.4 19.5 V 703 – Catalina Sky Survey MPS 222625
2007 10 10.29941 02 10 03.21 -02 53 32.4 19.8 V 703 – Catalina Sky Survey MPS 222625
2007 10 10.33438 02 10 01.48 -02 53 42.0 19.1 V 703 – Catalina Sky Survey MPS 222625
2007 10 10.34589 02 10 01.02 -02 53 44.0 18.9 V 703 – Catalina Sky Survey MPS 222625
2007 10 10.35743 02 10 00.48 -02 53 47.5 19.2 V 703 – Catalina Sky Survey MPS 222625
2007 10 10.36901 02 09 59.86 -02 53 50.3 19.0 V 703 – Catalina Sky Survey MPS 222625
2007 10 15.31254 02 06 09.32 -03 11 20.6 19.7 V 703 – Catalina Sky Survey MPS 229079
2007 10 15.32059 02 06 08.82 -03 11 22.4 18.7 V 703 – Catalina Sky Survey MPS 229079
2007 10 15.32866 02 06 08.42 -03 11 24.3 19.8 V 703 – Catalina Sky Survey MPS 229079
2007 10 15.33671 02 06 07.95 -03 11 24.4 18.6 V 703 – Catalina Sky Survey MPS 229079
2007 10 18.31263 02 03 43.43 -03 20 53.2 19.4   704 – Lincoln Laboratory ETS, New Mexico MPS 244663
2007 10 18.32393 02 03 42.77 -03 20 54.4 19.9   704 – Lincoln Laboratory ETS, New Mexico MPS 244663
2007 10 18.33524 02 03 42.23 -03 20 57.7 19.8   704 – Lincoln Laboratory ETS, New Mexico MPS 244663
2007 10 18.35782 02 03 40.99 -03 20 59.9 19.7   704 – Lincoln Laboratory ETS, New Mexico MPS 244663
2007 11 02.23749 01 51 25.66 -03 51 24.3 19.6 V 703 – Catalina Sky Survey MPS 228990
2007 11 02.24402 01 51 25.30 -03 51 24.9 19.7 V 703 – Catalina Sky Survey MPS 228990
2007 11 02.25053 01 51 25.05 -03 51 25.3 20.1 V 703 – Catalina Sky Survey MPS 228990
2007 11 02.25703 01 51 24.73 -03 51 25.4 20.9 V 703 – Catalina Sky Survey MPS 228990
2007 11 11.20058 01 44 41.02 -03 53 20.4 19.7 V 703 – Catalina Sky Survey MPS 228990
2007 11 11.20760 01 44 40.74 -03 53 20.2 19.5 V 703 – Catalina Sky Survey MPS 228990
2007 11 11.21463 01 44 40.38 -03 53 20.0 20.0 V 703 – Catalina Sky Survey MPS 228990
2007 11 11.22161 01 44 40.12 -03 53 19.5 19.7 V 703 – Catalina Sky Survey MPS 228990
2008 10 07.41927 07 38 11.47 +22 57 36.1 21.4 V G96 – Mt. Lemmon Survey MPS 259218
2008 10 07.42936 07 38 12.08 +22 57 36.9 21.2 V G96 – Mt. Lemmon Survey MPS 259218
2008 10 07.43947 07 38 12.73 +22 57 37.2 21.2 V G96 – Mt. Lemmon Survey MPS 259218
2008 10 07.44949 07 38 13.27 +22 57 37.0 21.5 V G96 – Mt. Lemmon Survey MPS 259218
2008 10 25.43613 07 52 56.53 +23 13 55.8 21.0 V G96 – Mt. Lemmon Survey MPS 261468
2008 10 25.44051 07 52 56.71 +23 13 56.4 20.3 V G96 – Mt. Lemmon Survey MPS 261468
2008 10 25.44484 07 52 56.89 +23 13 57.0 20.7 V G96 – Mt. Lemmon Survey MPS 261468
2008 10 25.44917 07 52 57.03 +23 13 57.3 20.6 V G96 – Mt. Lemmon Survey MPS 261468
2008 11 01.38044 07 57 05.22 +23 25 45.4 20.8 V G96 – Mt. Lemmon Survey MPS 263161
2008 11 01.38934 07 57 05.54 +23 25 45.6 20.1 V G96 – Mt. Lemmon Survey MPS 263161
2008 11 01.39832 07 57 05.79 +23 25 47.9 20.9 V G96 – Mt. Lemmon Survey MPS 263161
2008 11 01.40734 07 57 06.04 +23 25 49.0 20.9 V G96 – Mt. Lemmon Survey MPS 263161
2008 12 01.41671 08 02 31.05 +25 06 21.3 20.0 V G96 – Mt. Lemmon Survey MPS 267482
2008 12 01.42333 08 02 30.94 +25 06 23.3 20.0 V G96 – Mt. Lemmon Survey MPS 267482
2008 12 01.42993 08 02 30.84 +25 06 25.1 20.0 V G96 – Mt. Lemmon Survey MPS 267482
2008 12 01.43661 08 02 30.76 +25 06 27.0 20.0 V G96 – Mt. Lemmon Survey MPS 267482
2008 12 05.30663 08 01 33.38 +25 25 30.4 19.9 V G96 – Mt. Lemmon Survey MPS 267482
2008 12 05.31337 08 01 33.27 +25 25 32.5 20.0 V G96 – Mt. Lemmon Survey MPS 267482
2008 12 05.32012 08 01 33.16 +25 25 34.6 20.1 V G96 – Mt. Lemmon Survey MPS 267482
2008 12 05.32686 08 01 33.02 +25 25 36.9 20.0 V G96 – Mt. Lemmon Survey MPS 267482
2009 01 25.22007 07 22 47.70 +29 55 20.8 19.7   704 – Lincoln Laboratory ETS, New Mexico MPS 276234
2009 01 25.23252 07 22 47.03 +29 55 24.1 19.9   704 – Lincoln Laboratory ETS, New Mexico MPS 276234
2009 01 25.24527 07 22 46.29 +29 55 26.2 20.3   704 – Lincoln Laboratory ETS, New Mexico MPS 276234
2009 01 25.25794 07 22 45.59 +29 55 28.7 19.8   704 – Lincoln Laboratory ETS, New Mexico MPS 276234
2009 01 25.27031 07 22 45.01 +29 55 31.3 20.2   704 – Lincoln Laboratory ETS, New Mexico MPS 276234
2009 01 30.22874 07 18 36.13 +30 11 59.6 20.2   704 – Lincoln Laboratory ETS, New Mexico MPS 276234
2009 01 30.24118 07 18 35.44 +30 12 01.4 20.0   704 – Lincoln Laboratory ETS, New Mexico MPS 276234
2009 01 30.25342 07 18 34.97 +30 12 03.4 20.2   704 – Lincoln Laboratory ETS, New Mexico MPS 276234
2009 01 30.26569 07 18 34.38 +30 12 05.2 20.4   704 – Lincoln Laboratory ETS, New Mexico MPS 276234
2010 01 12.313094 13 29 57.92 +03 52 57.9   C51 – WISE MPS 330616
2010 01 12.445399 13 30 03.81 +03 52 51.5   C51 – WISE MPS 330616
2010 01 12.577831 13 30 09.63 +03 52 47.4   C51 – WISE MPS 330616
2010 01 12.710135 13 30 15.46 +03 52 43.7   C51 – WISE MPS 330616
2010 01 12.776352 13 30 18.46 +03 52 41.9   C51 – WISE MPS 330616
2010 01 12.842441 13 30 21.34 +03 52 40.2   C51 – WISE MPS 330616
2010 01 12.908656 13 30 24.298 +03 52 35.62   C51 – WISE MPS 879262
2010 01 12.974745 13 30 27.06 +03 52 34.0   C51 – WISE MPS 330616
2010 01 12.974873 13 30 27.03 +03 52 35.7   C51 – WISE MPS 330616
2010 01 13.040962 13 30 30.00 +03 52 32.2   C51 – WISE MPS 330616
